Location: Canazei
(46.4667°N, 11.7667°E)
Time: 17:15:42
(UTC+00:00)

Cosmos 2278 Rocket - Pass Details

Date: 21 April 2021
Orbit: 842 x 844 km, 71.0° (Epoch: 11 May)

Event Time Altitude Azimuth Distance (km) Brightness Sun altitude
Exits shadow 01:30:04 50° 263° (W) 1,072 2.4 -23.9°
Maximum altitude 01:31:04 57° 301° (WNW) 993 2.4 -23.8°
Drops below altitude 10° 01:36:39 10° 20° (NNE) 2,472 5.6 -23.2°
Sets 01:39:10 0° 25° (NNE) 3,411 6.7 -22.9°
